Location: Unspecified
(49.8670°N, 0.0000°E)
Time: 04:01:55
(UTC+00:00)

ISS - Pass Details

Date: 01 June 2019
Orbit: 407 x 418 km, 51.6° (Epoch: 20 June)

Event Time Altitude Azimuth Distance (km) Brightness Sun altitude
Rises 22:01:55 0° 282° (WNW) 2,357 0.7 -13.6°
Reaches altitude 10° 22:04:43 10° 256° (WSW) 1,493 -0.8 -13.8°
Maximum altitude 22:06:35 14° 222° (SW) 1,262 -1.5 -13.9°
Enters shadow 22:07:16 14° 209° (SSW) 1,294 -1.6 -14.0°
